Davenport, OK

2:00 PM CST on February 08, 2016 (GMT -0600)
Chandler Municipal

Weather History for KCQB - October, 2012

Change the Weather History Date:

Wednesday, October 31, 2012

  Actual Average (KOKC) Record (KOKC)
Temperature  
Mean Temperature 56 °F 57 °F  
Max Temperature 71 °F 68 °F 86 °F (1938)
Min Temperature 42 °F 46 °F 16 °F (1993)
Degree Days  
Heating Degree Days 8 8  
Month to date heating degree days 145  
Since 1 July heating degree days 164  
Cooling Degree Days 0 1  
Month to date cooling degree days 67  
Year to date cooling degree days 2092  
Growing Degree Days 6 (Base 50)    
Moisture  
Dew Point 44 °F    
Average Humidity 63    
Maximum Humidity 93    
Minimum Humidity 38    
Precipitation  
Precipitation 0.00 in 0.11 in 1.82 in (1972)
Month to date precipitation 3.71  
Year to date precipitation 32.66  
Snow  
Snow 0.00 in 0.00 in T in (1991)
Month to date snowfall T  
Since 1 July snowfall T  
Snow Depth -    
Sea Level Pressure  
Sea Level Pressure 30.01 in    
Wind  
Wind Speed 6 mph (North)    
Max Wind Speed 10 mph    
Max Gust Speed -    
Visibility 10 miles    
Events      
T = Trace of Precipitation, MM = Missing Value Source: NWS Daily Summary

Daily Weather History Graph

Daily Weather History Graph

Search for Another Location

Airport or City:

Trip Planner

Search our weather history database for the weather conditions in past years. The results will help you decide how hot, cold, wet, or windy it might be!

Date:

Astronomy

Oct. 31, 2012 Rise Set
Actual Time 7:48 AM CDT 6:32 PM CDT
Civil Twilight 7:22 AM CDT 6:58 PM CDT
Nautical Twilight 6:52 AM CDT 7:28 PM CDT
Astronomical Twilight 6:22 AM CDT 7:58 PM CDT
Moon 7:48 PM CDT (10/31) 9:27 AM CDT (10/31)
Length of Visible Light 11h 36m
Length of Day
10h 43m
Full, 97% of the Moon is Illuminated
Oct 31
Full
Nov 6
Last Quarter
Nov 13
New
Nov 20
First Quarter
Nov 28
Full

Hourly Weather History & Observations

Time (CDT) Temp. Windchill Dew Point Humidity Pressure Visibility Wind Dir Wind Speed Gust Speed Precip Events Conditions
12:15 AM 57.2 °F - 46.4 °F 67% 29.92 in 10.0 mi NNW 6.9 mph - N/A   Clear
12:35 AM 55.4 °F - 46.4 °F 72% 29.92 in 10.0 mi North 9.2 mph - N/A   Clear
12:55 AM 53.6 °F - 46.4 °F 77% 29.93 in 10.0 mi North - - N/A   Clear
1:15 AM 53.6 °F - 46.4 °F 77% 29.94 in 10.0 mi North - - N/A   Clear
1:35 AM 53.6 °F - 44.6 °F 72% 29.94 in 10.0 mi North 8.1 mph - N/A   Clear
1:55 AM 51.8 °F - 44.6 °F 76% 29.95 in 10.0 mi North 8.1 mph - N/A   Clear
2:15 AM 51.8 °F - 44.6 °F 76% 29.95 in 10.0 mi North - - N/A   Clear
2:35 AM 51.8 °F - 44.6 °F 76% 29.95 in 10.0 mi North 8.1 mph - N/A   Clear
2:55 AM 50.0 °F - 44.6 °F 82% 29.95 in 10.0 mi North 8.1 mph - N/A   Clear
3:15 AM 50.0 °F - 44.6 °F 82% 29.96 in 10.0 mi North 6.9 mph - N/A   Clear
3:35 AM 50.0 °F - 42.8 °F 76% 29.97 in 10.0 mi North 10.4 mph - N/A   Clear
3:55 AM 48.2 °F - 42.8 °F 82% 29.97 in 10.0 mi NNW 9.2 mph - N/A   Clear
4:15 AM 48.2 °F - 42.8 °F 82% 29.97 in 10.0 mi North 10.4 mph - N/A   Clear
4:35 AM 46.4 °F 42.4 °F 42.8 °F 87% 29.97 in 10.0 mi North 8.1 mph - N/A   Clear
4:55 AM 46.4 °F 42.4 °F 42.8 °F 87% 29.98 in 10.0 mi NNW 8.1 mph - N/A   Clear
5:15 AM 46.4 °F 42.9 °F 42.8 °F 87% 29.98 in 10.0 mi North 6.9 mph - N/A   Clear
5:35 AM 44.6 °F 39.7 °F 42.8 °F 93% 29.99 in 10.0 mi North 9.2 mph - N/A   Clear
5:55 AM 44.6 °F 41.4 °F 41.0 °F 87% 30.00 in 10.0 mi North 5.8 mph - N/A   Clear
6:15 AM 44.6 °F 40.7 °F 41.0 °F 87% 30.00 in 10.0 mi North 6.9 mph - N/A   Clear
6:35 AM 44.6 °F 40.7 °F 41.0 °F 87% 30.01 in 10.0 mi NNW 6.9 mph - N/A   Clear
6:55 AM 44.6 °F 40.7 °F 41.0 °F 87% 30.01 in 10.0 mi NW 6.9 mph - N/A   Clear
7:15 AM 42.8 °F 39.3 °F 41.0 °F 93% 30.02 in 10.0 mi NW 5.8 mph - N/A   Clear
7:35 AM 42.8 °F 38.6 °F 41.0 °F 93% 30.02 in 10.0 mi NNW 6.9 mph - N/A   Clear
7:55 AM 42.8 °F 39.3 °F 41.0 °F 93% 30.03 in 10.0 mi NNW 5.8 mph - N/A   Clear
8:15 AM 44.6 °F 41.4 °F 41.0 °F 87% 30.03 in 10.0 mi NW 5.8 mph - N/A   Clear
8:35 AM 44.6 °F 42.2 °F 41.0 °F 87% 30.04 in 10.0 mi NW 4.6 mph - N/A   Clear
8:55 AM 48.2 °F - 41.0 °F 76% 30.05 in 10.0 mi North 6.9 mph - N/A   Clear
9:15 AM 50.0 °F - 41.0 °F 71% 30.06 in 10.0 mi NNW 6.9 mph - N/A   Clear
9:35 AM 51.8 °F - 41.0 °F 67% 30.06 in 10.0 mi North 8.1 mph - N/A   Clear
9:55 AM 51.8 °F - 41.0 °F 67% 30.07 in 10.0 mi North 6.9 mph - N/A   Clear
10:15 AM 53.6 °F - 42.8 °F 67% 30.08 in 10.0 mi North 8.1 mph - N/A   Clear
10:35 AM 55.4 °F - 42.8 °F 63% 30.08 in 10.0 mi North 5.8 mph - N/A   Clear
10:55 AM 57.2 °F - 42.8 °F 59% 30.08 in 10.0 mi North 8.1 mph - N/A   Clear
11:15 AM 59.0 °F - 42.8 °F 55% 30.08 in 10.0 mi North 5.8 mph - N/A   Clear
11:35 AM 60.8 °F - 42.8 °F 52% 30.08 in 10.0 mi NNE 5.8 mph - N/A   Clear
11:55 AM 62.6 °F - 42.8 °F 48% 30.08 in 10.0 mi NNE 6.9 mph - N/A   Clear
12:15 PM 64.4 °F - 42.8 °F 45% 30.08 in 10.0 mi North 5.8 mph - N/A   Clear
12:35 PM 64.4 °F - 42.8 °F 45% 30.07 in 10.0 mi North 6.9 mph - N/A   Clear
12:55 PM 66.2 °F - 42.8 °F 43% 30.07 in 10.0 mi North 3.5 mph - N/A   Clear
1:15 PM 68.0 °F - 42.8 °F 40% 30.07 in 10.0 mi Calm Calm - N/A   Clear
1:35 PM 68.0 °F - 42.8 °F 40% 30.05 in 10.0 mi NE 3.5 mph - N/A   Clear
1:55 PM 69.8 °F - 44.6 °F 40% 30.05 in 10.0 mi North 4.6 mph - N/A   Clear
2:15 PM 69.8 °F - 44.6 °F 40% 30.05 in 10.0 mi North 3.5 mph - N/A   Clear
2:35 PM 71.6 °F - 44.6 °F 38% 30.03 in 10.0 mi Calm Calm - N/A   Clear
2:55 PM 71.6 °F - 44.6 °F 38% 30.02 in 10.0 mi NNW 3.5 mph - N/A   Clear
3:15 PM 71.6 °F - 44.6 °F 38% 30.02 in 10.0 mi Calm Calm - N/A   Clear
3:35 PM 71.6 °F - 44.6 °F 38% 30.01 in 10.0 mi WSW 3.5 mph - N/A   Clear
3:55 PM 71.6 °F - 44.6 °F 38% 30.01 in 10.0 mi Calm Calm - N/A   Clear
4:15 PM 71.6 °F - 44.6 °F 38% 30.01 in 10.0 mi Calm Calm - N/A   Clear
4:35 PM 71.6 °F - 44.6 °F 38% 30.01 in 10.0 mi Calm Calm - N/A   Clear
4:55 PM 71.6 °F - 44.6 °F 38% 30.00 in 10.0 mi Calm Calm - N/A   Clear
5:15 PM 71.6 °F - 44.6 °F 38% 30.00 in 10.0 mi Calm Calm - N/A   Clear
5:35 PM 71.6 °F - 44.6 °F 38% 30.00 in 7.0 mi Calm Calm - N/A   Clear
5:55 PM 71.6 °F - 46.4 °F 41% 30.00 in 10.0 mi Calm Calm - N/A   Clear
6:15 PM 69.8 °F - 46.4 °F 43% 30.00 in 10.0 mi Calm Calm - N/A   Clear
6:35 PM 64.4 °F - 48.2 °F 56% 30.00 in 10.0 mi Calm Calm - N/A   Clear
6:55 PM 64.4 °F - 44.6 °F 49% 30.00 in 10.0 mi Calm Calm - N/A   Clear
7:15 PM 64.4 °F - 44.6 °F 49% 30.00 in 10.0 mi SE 3.5 mph - N/A   Clear
7:35 PM 62.6 °F - 44.6 °F 52% 30.01 in 10.0 mi Calm Calm - N/A   Clear
7:55 PM 62.6 °F - 44.6 °F 52% 30.01 in 10.0 mi Calm Calm - N/A   Clear
8:15 PM 62.6 °F - 44.6 °F 52% 30.02 in 10.0 mi Calm Calm - N/A   Clear
8:35 PM 62.6 °F - 42.8 °F 48% 30.01 in 10.0 mi SE 3.5 mph - N/A   Clear
8:55 PM 60.8 °F - 44.6 °F 55% 30.02 in 10.0 mi ESE 3.5 mph - N/A   Clear
9:15 PM 59.0 °F - 44.6 °F 59% 30.01 in 7.0 mi SE 4.6 mph - N/A   Clear
9:35 PM 59.0 °F - 44.6 °F 59% 30.01 in 10.0 mi ESE 4.6 mph - N/A   Clear
10:15 PM 59.0 °F - 46.4 °F 63% 30.02 in 10.0 mi ESE 6.9 mph - N/A   Clear
10:35 PM 57.2 °F - 46.4 °F 67% 30.02 in 10.0 mi ESE 6.9 mph - N/A   Clear
11:15 PM 55.4 °F - 44.6 °F 67% 30.02 in 10.0 mi ESE 8.1 mph - N/A   Clear
11:35 PM 55.4 °F - 44.6 °F 67% 30.02 in 10.0 mi ESE 5.8 mph - N/A   Clear
11:55 PM 53.6 °F - 44.6 °F 72% 30.03 in 10.0 mi East 3.5 mph - N/A   Clear